Barter Island, AK

3:13 PM AKST on November 21, 2017 (GMT -0900)
Barter Island LRRS

Weather History for PABA - December, 2012

Change the Weather History Date:

Sunday, December 9, 2012

  Actual Average Record
Temperature  
Mean Temperature -15 °F -  
Max Temperature -22 °F 1 °F 16 °F (2002)
Min Temperature -23 °F -7 °F -29 °F (2004)
Degree Days  
Heating Degree Days 80    
Moisture  
Dew Point -17 °F    
Average Humidity 80    
Maximum Humidity 83    
Minimum Humidity 74    
Precipitation  
Precipitation 0.00 in - - ()
Sea Level Pressure  
Sea Level Pressure 29.92 in    
Wind  
Wind Speed 23 mph (ESE)    
Max Wind Speed 32 mph    
Max Gust Speed 40 mph    
Visibility 7 miles    
Events      
Averages and records for this station are not official NWS values.
T = Trace of Precipitation, MM = Missing Value Source: NWS Daily Summary

Daily Weather History Graph

Daily Weather History Graph

Search for Another Location

Airport or City:

Trip Planner

Search our weather history database for the weather conditions in past years. The results will help you decide how hot, cold, wet, or windy it might be!

Date:

Astronomy

Dec. 31, 1969 Rise Set
Actual Time Sun does not rise Sun does not rise
Civil Twilight 10:13 AM AKST 2:40 PM AKST
Nautical Twilight 8:28 AM AKST 4:25 PM AKST
Astronomical Twilight 7:08 AM AKST 5:44 PM AKST
Moon 5:21 AM AKST (12/9) 12:16 PM AKST (12/9)
Length of Visible Light 4h 26m
Length of Day
0h 00m
Waning Crescent, 17% of the Moon is Illuminated
Dec 9
Waning Crescent
Dec 12
New
Dec 19
First Quarter
Dec 28
Full
Jan 4
Last Quarter

Hourly Weather History & Observations

Time (AKST) Temp. Windchill Dew Point Humidity Pressure Visibility Wind Dir Wind Speed Gust Speed Precip Events Conditions
12:01 AM -9.0 °F -37.2 °F -13.0 °F 83% 30.06 in 4.0 mi East 27.6 mph - N/A   Clear
1:01 AM -8.0 °F -35.8 °F -11.9 °F 83% 30.03 in 5.0 mi East 27.6 mph 34.5 mph N/A   Clear
2:01 AM -8.0 °F -35.8 °F -11.9 °F 83% 29.99 in 4.0 mi East 27.6 mph 40.3 mph N/A   Clear
3:01 AM -8.0 °F -35.8 °F -11.9 °F 83% 29.97 in 5.0 mi East 27.6 mph - N/A   Clear
4:01 AM -8.0 °F -37.4 °F -11.9 °F 83% 29.94 in 3.0 mi East 32.2 mph 38.0 mph N/A   Clear
5:01 AM -8.0 °F -37.4 °F -11.9 °F 83% 29.92 in 3.0 mi East 32.2 mph 38.0 mph N/A   Clear
6:01 AM -8.0 °F -35.8 °F -11.9 °F 83% 29.91 in 4.0 mi East 27.6 mph 35.7 mph N/A   Clear
7:01 AM -8.0 °F -36.2 °F -13.0 °F 79% 29.89 in 4.0 mi East 28.8 mph - N/A   Haze
8:01 AM -9.0 °F -37.2 °F -13.0 °F 83% 29.88 in 5.0 mi East 27.6 mph 36.8 mph N/A   Clear
9:01 AM -9.0 °F -37.2 °F -14.1 °F 79% 29.89 in 6.0 mi East 27.6 mph - N/A   Haze
10:01 AM -9.9 °F -37.0 °F -14.1 °F 82% 29.89 in 7.0 mi East 24.2 mph - N/A   Clear
11:01 AM -9.9 °F -34.2 °F -14.1 °F 82% 29.90 in 8.0 mi East 18.4 mph - N/A   Clear
12:01 PM -9.9 °F -32.8 °F -15.0 °F 78% 29.90 in 7.0 mi East 16.1 mph - N/A   Clear
1:01 PM -11.0 °F -31.8 °F -15.0 °F 83% 29.90 in 8.0 mi East 12.7 mph - N/A   Clear
2:01 PM -11.9 °F -33.0 °F -17.0 °F 78% 29.90 in 10.0 mi ESE 12.7 mph - N/A   Clear
3:01 PM -15.0 °F -29.3 °F -20.0 °F 78% 29.90 in 10.0 mi South 5.8 mph - N/A   Clear
4:01 PM -18.0 °F -33.0 °F -24.0 °F 74% 29.91 in 10.0 mi WSW 5.8 mph - N/A   Clear
5:01 PM -18.9 °F -37.2 °F -24.0 °F 78% 29.91 in 10.0 mi WNW 8.1 mph - N/A   Clear
6:01 PM -20.0 °F -43.2 °F -25.1 °F 78% 29.90 in 10.0 mi West 12.7 mph - N/A   Clear
7:01 PM -18.0 °F -39.7 °F -23.1 °F 78% 29.91 in 10.0 mi West 11.5 mph - N/A   Clear
8:01 PM -18.0 °F -41.6 °F -23.1 °F 78% 29.91 in 9.0 mi West 13.8 mph - N/A   Clear
9:01 PM -20.9 °F -39.7 °F -26.0 °F 77% 29.91 in 10.0 mi West 8.1 mph - N/A   Clear
10:01 PM -22.0 °F -43.6 °F -27.0 °F 77% 29.91 in 10.0 mi West 10.4 mph - N/A   Clear
11:01 PM -23.1 °F -43.7 °F -27.9 °F 78% 29.93 in 10.0 mi WSW 9.2 mph - N/A   Clear